Wetterdaten: Samstag, 17.10.2015
Datum Zeit Auen-Temp. Temp gefhlt Luftfeuchte Luftdruck Regen Wind Richtung Richtung Taupunkt Windben
17.10.2015 00:00 2,5 C 2,3 C 92 % 1016,6 hPa 0,0 mm 0,5 km/h (0 Bft) SO 135 1,3 C 0,0 km/h (0 Bft)
17.10.2015 00:05 2,5 C 2,4 C 88 % 1016,6 hPa 0,0 mm 0,0 km/h (0 Bft) SO 135 0,7 C 0,0 km/h (0 Bft)
17.10.2015 00:10 2,5 C 2,3 C 92 % 1016,8 hPa 0,0 mm 0,0 km/h (0 Bft) SO 135 1,3 C 0,0 km/h (0 Bft)
17.10.2015 00:15 2,4 C 2,3 C 88 % 1016,8 hPa 0,0 mm 0,0 km/h (0 Bft) SO 135 0,6 C 0,0 km/h (0 Bft)
17.10.2015 00:20 2,4 C 2,2 C 92 % 1016,8 hPa 0,0 mm 0,0 km/h (0 Bft) S-SO 157 1,2 C 0,0 km/h (0 Bft)
17.10.2015 00:25 2,4 C 2,2 C 92 % 1016,8 hPa 0,0 mm 0,0 km/h (0 Bft) S-SO 157 1,2 C 0,0 km/h (0 Bft)
17.10.2015 00:30 2,3 C 2,1 C 92 % 1016,4 hPa 0,0 mm 0,0 km/h (0 Bft) S-SW 202 1,1 C 0,0 km/h (0 Bft)
17.10.2015 00:35 2,3 C 2,1 C 92 % 1016,4 hPa 0,0 mm 0,3 km/h (0 Bft) S-SW 202 1,1 C 0,0 km/h (0 Bft)
17.10.2015 00:40 2,3 C 2,1 C 92 % 1016,4 hPa 0,0 mm 0,5 km/h (0 Bft) S 180 1,1 C 0,0 km/h (0 Bft)
17.10.2015 00:45 2,3 C 2,1 C 92 % 1016,4 hPa 0,0 mm 0,3 km/h (0 Bft) SO 135 1,1 C 0,0 km/h (0 Bft)
17.10.2015 00:50 2,3 C 2,1 C 92 % 1016,4 hPa 0,0 mm 0,0 km/h (0 Bft) SO 135 1,1 C 0,0 km/h (0 Bft)
17.10.2015 00:55 2,3 C 2,1 C 92 % 1016,4 hPa 0,0 mm 0,0 km/h (0 Bft) SO 135 1,1 C 0,0 km/h (0 Bft)
17.10.2015 01:00 2,3 C 2,1 C 92 % 1016,4 hPa 0,0 mm 0,0 km/h (0 Bft) SO 135 1,1 C 0,0 km/h (0 Bft)
17.10.2015 01:05 2,3 C 2,1 C 92 % 1016,4 hPa 0,0 mm 0,0 km/h (0 Bft) SO 135 1,1 C 0,0 km/h (0 Bft)
17.10.2015 01:10 2,3 C 2,1 C 92 % 1016,4 hPa 0,0 mm 0,0 km/h (0 Bft) SO 135 1,1 C 0,0 km/h (0 Bft)
17.10.2015 01:15 2,3 C 2,2 C 89 % 1016,4 hPa 0,0 mm 0,0 km/h (0 Bft) S 180 0,7 C 0,0 km/h (0 Bft)
17.10.2015 01:20 2,3 C 2,2 C 89 % 1016,4 hPa 0,0 mm 0,0 km/h (0 Bft) S 180 0,7 C 0,0 km/h (0 Bft)
17.10.2015 01:25 2,3 C 2,1 C 92 % 1016,4 hPa 0,0 mm 0,0 km/h (0 Bft) S-SO 157 1,1 C 0,0 km/h (0 Bft)
17.10.2015 01:30 2,3 C 2,1 C 92 % 1016,2 hPa 0,0 mm 0,0 km/h (0 Bft) SW 225 1,1 C 0,0 km/h (0 Bft)
17.10.2015 01:35 2,3 C 2,1 C 92 % 1016,2 hPa 0,0 mm 0,0 km/h (0 Bft) S-SW 202 1,1 C 0,0 km/h (0 Bft)
17.10.2015 01:40 2,3 C 2,1 C 92 % 1016,2 hPa 0,0 mm 0,0 km/h (0 Bft) S 180 1,1 C 0,0 km/h (0 Bft)
17.10.2015 01:45 2,3 C 2,1 C 92 % 1016,2 hPa 0,0 mm 0,0 km/h (0 Bft) S-SO 157 1,1 C 0,0 km/h (0 Bft)
17.10.2015 01:50 2,3 C 2,2 C 89 % 1016,2 hPa 0,0 mm 0,0 km/h (0 Bft) S 180 0,7 C 0,0 km/h (0 Bft)
17.10.2015 01:55 2,3 C 2,2 C 89 % 1016,2 hPa 0,0 mm 0,0 km/h (0 Bft) SW 225 0,7 C 0,0 km/h (0 Bft)
17.10.2015 02:00 2,3 C 2,2 C 89 % 1016,2 hPa 0,0 mm 0,0 km/h (0 Bft) S 180 0,7 C 0,0 km/h (0 Bft)
17.10.2015 02:05 2,3 C 2,2 C 89 % 1016,2 hPa 0,7 mm 0,0 km/h (0 Bft) S-SO 157 0,7 C 0,0 km/h (0 Bft)
17.10.2015 02:10 2,3 C 2,2 C 89 % 1016,2 hPa 0,0 mm 0,0 km/h (0 Bft) S 180 0,7 C 0,0 km/h (0 Bft)
17.10.2015 02:15 2,3 C 2,2 C 89 % 1016,2 hPa 0,0 mm 0,0 km/h (0 Bft) S-SO 157 0,7 C 0,0 km/h (0 Bft)
17.10.2015 02:20 2,3 C 2,2 C 89 % 1016,2 hPa 0,0 mm 0,0 km/h (0 Bft) S 180 0,7 C 0,0 km/h (0 Bft)
17.10.2015 02:25 2,3 C 2,1 C 93 % 1016,2 hPa 0,0 mm 0,0 km/h (0 Bft) S 180 1,3 C 0,0 km/h (0 Bft)
17.10.2015 02:30 2,3 C 2,1 C 93 % 1016,2 hPa 0,0 mm 0,0 km/h (0 Bft) S-SO 157 1,3 C 0,0 km/h (0 Bft)
17.10.2015 02:35 2,3 C 2,1 C 93 % 1016,2 hPa 0,0 mm 0,0 km/h (0 Bft) S 180 1,3 C 0,0 km/h (0 Bft)
17.10.2015 02:40 2,3 C 2,1 C 93 % 1016,2 hPa 0,0 mm 0,0 km/h (0 Bft) S-SO 157 1,3 C 0,0 km/h (0 Bft)
17.10.2015 02:45 2,2 C 2,1 C 89 % 1016,2 hPa 0,0 mm 0,0 km/h (0 Bft) S-SO 157 0,6 C 0,0 km/h (0 Bft)
17.10.2015 02:50 2,2 C 2,1 C 89 % 1016,0 hPa 0,0 mm 0,0 km/h (0 Bft) S-SO 157 0,6 C 0,0 km/h (0 Bft)
17.10.2015 02:55 2,2 C 2,1 C 89 % 1016,0 hPa 0,0 mm 0,0 km/h (0 Bft) S-SW 202 0,6 C 0,0 km/h (0 Bft)
17.10.2015 03:00 2,2 C 2,1 C 89 % 1016,0 hPa 0,0 mm 0,0 km/h (0 Bft) S 180 0,6 C 0,0 km/h (0 Bft)
17.10.2015 03:05 2,3 C 2,2 C 89 % 1016,0 hPa 0,0 mm 0,0 km/h (0 Bft) S-SW 202 0,7 C 0,0 km/h (0 Bft)
17.10.2015 03:10 2,3 C 2,2 C 89 % 1016,1 hPa 0,0 mm 0,0 km/h (0 Bft) SO 135 0,7 C 0,0 km/h (0 Bft)
17.10.2015 03:15 2,3 C 2,2 C 89 % 1016,1 hPa 0,0 mm 0,0 km/h (0 Bft) O-NO 67 0,7 C 0,0 km/h (0 Bft)
17.10.2015 03:20 2,3 C 2,2 C 89 % 1016,1 hPa 0,0 mm 0,0 km/h (0 Bft) O-SO 112 0,7 C 0,0 km/h (0 Bft)
17.10.2015 03:25 2,3 C 2,2 C 89 % 1016,1 hPa 0,0 mm 0,0 km/h (0 Bft) O 90 0,7 C 0,0 km/h (0 Bft)
17.10.2015 03:30 2,3 C 2,2 C 89 % 1016,0 hPa 0,0 mm 0,0 km/h (0 Bft) O 90 0,7 C 0,0 km/h (0 Bft)
17.10.2015 03:35 2,3 C 2,2 C 89 % 1016,0 hPa 0,0 mm 0,0 km/h (0 Bft) O-NO 67 0,7 C 0,0 km/h (0 Bft)
17.10.2015 03:40 2,3 C 2,2 C 89 % 1016,0 hPa 0,0 mm 0,0 km/h (0 Bft) O-NO 67 0,7 C 0,0 km/h (0 Bft)
17.10.2015 03:45 2,3 C 2,2 C 89 % 1016,0 hPa 0,0 mm 0,0 km/h (0 Bft) N-NO 22 0,7 C 0,0 km/h (0 Bft)
17.10.2015 03:50 2,3 C 2,2 C 89 % 1015,9 hPa 0,0 mm 0,0 km/h (0 Bft) N-NO 22 0,7 C 0,0 km/h (0 Bft)
17.10.2015 03:55 2,3 C 2,2 C 89 % 1015,9 hPa 0,0 mm 0,0 km/h (0 Bft) N-NO 22 0,7 C 0,0 km/h (0 Bft)
17.10.2015 04:00 2,3 C 2,2 C 89 % 1015,9 hPa 0,0 mm 0,0 km/h (0 Bft) O-NO 67 0,7 C 0,0 km/h (0 Bft)
17.10.2015 04:05 2,3 C 2,2 C 89 % 1015,9 hPa 0,0 mm 0,0 km/h (0 Bft) SO 135 0,7 C 0,0 km/h (0 Bft)
17.10.2015 04:10 2,3 C 2,2 C 89 % 1015,9 hPa 0,0 mm 0,0 km/h (0 Bft) SO 135 0,7 C 0,0 km/h (0 Bft)
17.10.2015 04:15 2,3 C 2,1 C 93 % 1015,9 hPa 0,0 mm 0,0 km/h (0 Bft) SO 135 1,3 C 0,0 km/h (0 Bft)
17.10.2015 04:20 2,2 C 2,1 C 89 % 1015,9 hPa 0,0 mm 0,0 km/h (0 Bft) SO 135 0,6 C 0,0 km/h (0 Bft)
17.10.2015 04:25 2,2 C 2,1 C 89 % 1015,9 hPa 0,0 mm 0,0 km/h (0 Bft) SO 135 0,6 C 0,0 km/h (0 Bft)
17.10.2015 04:30 2,2 C 2,1 C 89 % 1015,9 hPa 0,0 mm 0,0 km/h (0 Bft) S 180 0,6 C 0,0 km/h (0 Bft)
17.10.2015 04:35 2,2 C 2,1 C 89 % 1015,9 hPa 0,0 mm 0,0 km/h (0 Bft) S 180 0,6 C 0,0 km/h (0 Bft)
17.10.2015 04:40 2,2 C 2,1 C 89 % 1015,9 hPa 0,0 mm 0,0 km/h (0 Bft) S 180 0,6 C 0,0 km/h (0 Bft)
17.10.2015 04:45 2,3 C 2,2 C 89 % 1015,9 hPa 0,0 mm 0,0 km/h (0 Bft) S 180 0,7 C 0,0 km/h (0 Bft)
17.10.2015 04:50 2,3 C 2,2 C 89 % 1015,9 hPa 0,0 mm 0,0 km/h (0 Bft) S-SW 202 0,7 C 0,0 km/h (0 Bft)
17.10.2015 04:55 2,3 C 2,2 C 89 % 1015,9 hPa 0,0 mm 0,0 km/h (0 Bft) S-SW 202 0,7 C 0,0 km/h (0 Bft)
17.10.2015 05:00 2,3 C 2,2 C 89 % 1015,9 hPa 0,0 mm 0,0 km/h (0 Bft) S-SO 157 0,7 C 0,0 km/h (0 Bft)
17.10.2015 05:05 2,3 C 2,1 C 93 % 1015,9 hPa 0,0 mm 0,0 km/h (0 Bft) S-SO 157 1,3 C 0,0 km/h (0 Bft)
17.10.2015 05:10 2,3 C 2,2 C 89 % 1015,7 hPa 0,0 mm 0,0 km/h (0 Bft) S-SO 157 0,7 C 0,0 km/h (0 Bft)
17.10.2015 05:15 2,3 C 2,2 C 89 % 1015,7 hPa 0,0 mm 0,0 km/h (0 Bft) S 180 0,7 C 0,0 km/h (0 Bft)
17.10.2015 05:20 2,3 C 2,2 C 89 % 1015,7 hPa 0,0 mm 0,0 km/h (0 Bft) S-SO 157 0,7 C 0,0 km/h (0 Bft)
17.10.2015 05:25 2,3 C 2,2 C 89 % 1015,7 hPa 0,0 mm 0,0 km/h (0 Bft) SO 135 0,7 C 0,0 km/h (0 Bft)
17.10.2015 05:30 2,3 C 2,2 C 89 % 1015,7 hPa 0,0 mm 0,0 km/h (0 Bft) SO 135 0,7 C 0,0 km/h (0 Bft)
17.10.2015 05:35 2,3 C 2,2 C 89 % 1015,7 hPa 0,0 mm 0,0 km/h (0 Bft) SO 135 0,7 C 0,0 km/h (0 Bft)
17.10.2015 05:40 2,3 C 2,2 C 89 % 1015,7 hPa 0,0 mm 0,0 km/h (0 Bft) SO 135 0,7 C 0,0 km/h (0 Bft)
17.10.2015 05:45 2,3 C 2,1 C 93 % 1015,7 hPa 0,0 mm 0,0 km/h (0 Bft) O-SO 112 1,3 C 0,0 km/h (0 Bft)
17.10.2015 05:50 2,3 C 2,1 C 93 % 1015,7 hPa 0,0 mm 0,0 km/h (0 Bft) SW 225 1,3 C 0,0 km/h (0 Bft)
17.10.2015 05:55 2,2 C 2,1 C 89 % 1015,7 hPa 0,0 mm 0,0 km/h (0 Bft) S 180 0,6 C 0,0 km/h (0 Bft)
17.10.2015 06:00 2,2 C 2,1 C 89 % 1015,7 hPa 0,0 mm 0,0 km/h (0 Bft) S-SW 202 0,6 C 0,0 km/h (0 Bft)
17.10.2015 06:05 2,2 C 2,1 C 89 % 1015,7 hPa 0,0 mm 0,0 km/h (0 Bft) S-SO 157 0,6 C 0,0 km/h (0 Bft)
17.10.2015 06:10 2,2 C 2,1 C 89 % 1015,7 hPa 0,0 mm 0,0 km/h (0 Bft) SW 225 0,6 C 0,0 km/h (0 Bft)
17.10.2015 06:15 2,2 C 2,1 C 89 % 1015,7 hPa 0,0 mm 0,0 km/h (0 Bft) SW 225 0,6 C 0,0 km/h (0 Bft)
17.10.2015 06:20 2,2 C 2,1 C 89 % 1015,7 hPa 0,0 mm 0,0 km/h (0 Bft) S 180 0,6 C 0,0 km/h (0 Bft)
17.10.2015 06:25 2,2 C 2,1 C 89 % 1015,7 hPa 0,0 mm 0,0 km/h (0 Bft) S-SO 157 0,6 C 0,0 km/h (0 Bft)
17.10.2015 06:30 2,2 C 2,1 C 89 % 1015,6 hPa 0,0 mm 0,0 km/h (0 Bft) SO 135 0,6 C 0,0 km/h (0 Bft)
17.10.2015 06:35 2,2 C 2,1 C 89 % 1015,6 hPa 0,0 mm 0,0 km/h (0 Bft) SO 135 0,6 C 0,0 km/h (0 Bft)
17.10.2015 06:40 2,2 C 2,1 C 89 % 1015,6 hPa 0,0 mm 0,0 km/h (0 Bft) SO 135 0,6 C 0,0 km/h (0 Bft)
17.10.2015 06:45 2,2 C 2,0 C 93 % 1015,6 hPa 0,0 mm 0,0 km/h (0 Bft) S-SO 157 1,2 C 0,0 km/h (0 Bft)
17.10.2015 06:50 2,2 C 2,0 C 93 % 1015,8 hPa 0,0 mm 0,0 km/h (0 Bft) S 180 1,2 C 0,0 km/h (0 Bft)
17.10.2015 06:55 2,2 C 2,0 C 93 % 1015,8 hPa 0,0 mm 0,0 km/h (0 Bft) S-SO 157 1,2 C 0,0 km/h (0 Bft)
17.10.2015 07:00 2,2 C 2,0 C 93 % 1015,8 hPa 0,0 mm 0,0 km/h (0 Bft) S 180 1,2 C 0,0 km/h (0 Bft)
17.10.2015 07:05 2,2 C 2,0 C 93 % 1015,8 hPa 0,0 mm 0,0 km/h (0 Bft) S 180 1,2 C 0,0 km/h (0 Bft)
17.10.2015 07:10 2,2 C 2,0 C 93 % 1015,9 hPa 0,0 mm 0,0 km/h (0 Bft) S 180 1,2 C 0,0 km/h (0 Bft)
17.10.2015 07:15 2,2 C 2,0 C 93 % 1015,9 hPa 0,0 mm 0,0 km/h (0 Bft) S 180 1,2 C 0,0 km/h (0 Bft)
17.10.2015 07:20 2,2 C 2,0 C 93 % 1015,9 hPa 0,0 mm 0,0 km/h (0 Bft) SO 135 1,2 C 0,0 km/h (0 Bft)
17.10.2015 07:25 2,1 C 2,0 C 89 % 1015,9 hPa 0,0 mm 0,0 km/h (0 Bft) SO 135 0,5 C 0,0 km/h (0 Bft)
17.10.2015 07:30 2,1 C 2,0 C 89 % 1016,0 hPa 0,0 mm 0,0 km/h (0 Bft) SO 135 0,5 C 0,0 km/h (0 Bft)
17.10.2015 07:35 2,1 C 2,0 C 89 % 1016,0 hPa 0,0 mm 0,0 km/h (0 Bft) SO 135 0,5 C 0,0 km/h (0 Bft)
17.10.2015 07:40 2,1 C 2,0 C 89 % 1016,0 hPa 0,0 mm 0,0 km/h (0 Bft) SO 135 0,5 C 0,0 km/h (0 Bft)
17.10.2015 07:45 2,2 C 2,0 C 93 % 1016,0 hPa 0,0 mm 0,0 km/h (0 Bft) SO 135 1,2 C 0,0 km/h (0 Bft)
17.10.2015 07:50 2,2 C 2,0 C 93 % 1016,0 hPa 0,0 mm 0,0 km/h (0 Bft) S-SO 157 1,2 C 0,0 km/h (0 Bft)
17.10.2015 07:54 2,2 C 2,1 C 89 % 1016,0 hPa 0,0 mm 0,0 km/h (0 Bft) O-SO 112 0,6 C 0,0 km/h (0 Bft)
17.10.2015 07:56 2,2 C 2,1 C 89 % 1016,0 hPa 0,0 mm 0,0 km/h (0 Bft) O-SO 112 0,6 C 0,0 km/h (0 Bft)
17.10.2015 08:00 2,2 C 2,1 C 89 % 1016,0 hPa 0,0 mm 0,0 km/h (0 Bft) O-SO 112 0,6 C 0,0 km/h (0 Bft)
17.10.2015 08:05 2,2 C 2,2 C 89 % 1016,0 hPa 0,0 mm 0,0 km/h (0 Bft) O-SO 112 0,6 C 0,0 km/h (0 Bft)
17.10.2015 08:10 2,2 C 2,2 C 89 % 1016,1 hPa 0,0 mm 0,0 km/h (0 Bft) O-SO 112 0,6 C 0,0 km/h (0 Bft)
17.10.2015 08:15 2,3 C 2,3 C 89 % 1016,1 hPa 0,0 mm 0,0 km/h (0 Bft) O 90 0,7 C 0,0 km/h (0 Bft)
17.10.2015 08:20 2,3 C 2,4 C 89 % 1016,1 hPa 0,0 mm 0,0 km/h (0 Bft) O 90 0,7 C 0,0 km/h (0 Bft)
17.10.2015 08:25 2,4 C 2,5 C 89 % 1016,1 hPa 0,0 mm 0,0 km/h (0 Bft) O-SO 112 0,8 C 0,0 km/h (0 Bft)
17.10.2015 08:30 2,5 C 2,5 C 89 % 1016,0 hPa 0,0 mm 0,0 km/h (0 Bft) O-SO 112 0,9 C 0,0 km/h (0 Bft)
17.10.2015 08:35 2,5 C 2,6 C 89 % 1016,0 hPa 0,0 mm 0,0 km/h (0 Bft) NO 45 0,9 C 0,0 km/h (0 Bft)
17.10.2015 08:40 2,6 C 2,7 C 89 % 1016,0 hPa 0,0 mm 0,3 km/h (0 Bft) NO 45 1,0 C 3,6 km/h (1 Bft)
17.10.2015 08:45 2,7 C 2,9 C 90 % 1016,0 hPa 0,0 mm 0,5 km/h (0 Bft) O-NO 67 1,2 C 4,1 km/h (1 Bft)
17.10.2015 08:50 2,9 C 3,0 C 90 % 1016,1 hPa 0,0 mm 1,0 km/h (0 Bft) O-NO 67 1,4 C 0,0 km/h (0 Bft)
17.10.2015 08:55 3,0 C 3,2 C 89 % 1016,1 hPa 0,0 mm 2,1 km/h (1 Bft) O-NO 67 1,4 C 3,4 km/h (1 Bft)
17.10.2015 09:00 3,1 C 3,3 C 89 % 1016,1 hPa 0,0 mm 3,1 km/h (1 Bft) O-NO 67 1,5 C 7,3 km/h (2 Bft)
17.10.2015 09:05 3,1 C 3,2 C 89 % 1016,1 hPa 0,0 mm 4,7 km/h (1 Bft) O-NO 67 1,5 C 4,4 km/h (1 Bft)
17.10.2015 09:10 3,2 C 3,3 C 89 % 1016,1 hPa 0,0 mm 5,2 km/h (1 Bft) O-NO 67 1,6 C 8,5 km/h (2 Bft)
17.10.2015 09:15 3,3 C 3,5 C 89 % 1016,1 hPa 0,0 mm 4,4 km/h (1 Bft) NO 45 1,7 C 3,6 km/h (1 Bft)
17.10.2015 09:20 3,3 C 3,5 C 89 % 1016,1 hPa 0,0 mm 4,1 km/h (1 Bft) NO 45 1,7 C 3,1 km/h (1 Bft)
17.10.2015 09:25 3,5 C 3,7 C 89 % 1016,1 hPa 0,0 mm 2,3 km/h (1 Bft) NO 45 1,9 C 0,0 km/h (0 Bft)
17.10.2015 09:30 3,6 C 4,0 C 89 % 1016,1 hPa 0,0 mm 0,8 km/h (0 Bft) NO 45 2,0 C 0,0 km/h (0 Bft)
17.10.2015 09:35 3,7 C 4,3 C 89 % 1016,1 hPa 0,0 mm 1,3 km/h (1 Bft) O-NO 67 2,1 C 4,4 km/h (1 Bft)
17.10.2015 09:40 3,6 C 4,2 C 89 % 1016,1 hPa 0,0 mm 2,3 km/h (1 Bft) O-NO 67 2,0 C 4,7 km/h (1 Bft)
17.10.2015 09:45 3,6 C 4,0 C 89 % 1016,1 hPa 0,0 mm 3,4 km/h (1 Bft) NO 45 2,0 C 2,6 km/h (1 Bft)
17.10.2015 09:50 3,6 C 4,0 C 89 % 1016,1 hPa 0,0 mm 3,4 km/h (1 Bft) O-NO 67 2,0 C 6,2 km/h (2 Bft)
17.10.2015 09:55 3,6 C 3,9 C 89 % 1016,1 hPa 0,0 mm 3,1 km/h (1 Bft) NO 45 2,0 C 4,9 km/h (1 Bft)
17.10.2015 10:00 3,5 C 4,0 C 89 % 1016,1 hPa 0,0 mm 3,6 km/h (1 Bft) NO 45 1,9 C 7,0 km/h (2 Bft)
17.10.2015 10:05 3,6 C 4,6 C 89 % 1016,1 hPa 0,0 mm 3,9 km/h (1 Bft) NO 45 2,0 C 5,7 km/h (1 Bft)
17.10.2015 10:10 3,8 C 5,3 C 89 % 1016,1 hPa 0,0 mm 4,1 km/h (1 Bft) O-NO 67 2,2 C 5,7 km/h (1 Bft)
17.10.2015 10:15 4,0 C 5,7 C 89 % 1016,1 hPa 0,0 mm 4,1 km/h (1 Bft) O-NO 67 2,4 C 4,4 km/h (1 Bft)
17.10.2015 10:20 4,2 C 6,0 C 89 % 1016,1 hPa 0,0 mm 3,9 km/h (1 Bft) O-NO 67 2,6 C 6,2 km/h (2 Bft)
17.10.2015 10:25 4,5 C 8,0 C 89 % 1016,1 hPa 0,0 mm 3,9 km/h (1 Bft) NO 45 2,8 C 9,8 km/h (2 Bft)
17.10.2015 10:30 4,6 C 8,2 C 89 % 1016,0 hPa 0,0 mm 4,1 km/h (1 Bft) O-NO 67 2,9 C 5,2 km/h (1 Bft)
17.10.2015 10:35 4,8 C 7,2 C 89 % 1016,0 hPa 0,0 mm 6,2 km/h (2 Bft) N-NO 22 3,1 C 10,6 km/h (2 Bft)
17.10.2015 10:40 4,6 C 6,9 C 89 % 1016,0 hPa 0,0 mm 6,0 km/h (2 Bft) NO 45 2,9 C 10,9 km/h (2 Bft)
17.10.2015 10:45 4,9 C 9,0 C 89 % 1016,0 hPa 0,0 mm 6,7 km/h (2 Bft) O-NO 67 3,2 C 7,8 km/h (2 Bft)
17.10.2015 10:50 5,0 C 8,8 C 88 % 1016,2 hPa 0,0 mm 7,5 km/h (2 Bft) O-NO 67 3,2 C 14,0 km/h (3 Bft)
17.10.2015 10:55 4,8 C 7,3 C 88 % 1016,2 hPa 0,0 mm 7,5 km/h (2 Bft) S 180 3,0 C 5,4 km/h (1 Bft)
17.10.2015 11:00 4,9 C 6,5 C 88 % 1016,2 hPa 0,0 mm 7,8 km/h (2 Bft) O-NO 67 3,1 C 10,6 km/h (2 Bft)
17.10.2015 11:05 5,0 C 6,7 C 88 % 1016,2 hPa 0,0 mm 6,2 km/h (2 Bft) O-NO 67 3,2 C 8,0 km/h (2 Bft)
17.10.2015 11:10 5,1 C 6,8 C 88 % 1016,4 hPa 0,0 mm 5,7 km/h (1 Bft) O-NO 67 3,3 C 6,2 km/h (2 Bft)
17.10.2015 11:15 5,2 C 7,0 C 87 % 1016,4 hPa 0,0 mm 6,0 km/h (2 Bft) O-SO 112 3,2 C 10,9 km/h (2 Bft)
17.10.2015 11:20 5,2 C 6,9 C 87 % 1016,4 hPa 0,0 mm 6,2 km/h (2 Bft) O-NO 67 3,2 C 4,1 km/h (1 Bft)
17.10.2015 11:25 5,3 C 7,4 C 87 % 1016,4 hPa 0,0 mm 6,0 km/h (2 Bft) N-NO 22 3,3 C 7,0 km/h (2 Bft)
17.10.2015 11:30 5,4 C 8,0 C 87 % 1016,2 hPa 0,0 mm 6,0 km/h (2 Bft) NO 45 3,4 C 9,3 km/h (2 Bft)
17.10.2015 11:35 5,3 C 7,6 C 87 % 1016,2 hPa 0,0 mm 8,3 km/h (2 Bft) NO 45 3,3 C 10,1 km/h (2 Bft)
17.10.2015 11:40 5,3 C 7,2 C 87 % 1016,2 hPa 0,0 mm 8,0 km/h (2 Bft) O-NO 67 3,3 C 15,8 km/h (3 Bft)
17.10.2015 11:45 5,5 C 7,8 C 87 % 1016,2 hPa 0,0 mm 7,5 km/h (2 Bft) O-NO 67 3,5 C 7,8 km/h (2 Bft)
17.10.2015 11:50 5,6 C 7,8 C 86 % 1016,4 hPa 0,0 mm 6,7 km/h (2 Bft) N-NO 22 3,4 C 6,0 km/h (2 Bft)
17.10.2015 11:55 5,6 C 7,7 C 86 % 1016,4 hPa 0,0 mm 7,3 km/h (2 Bft) NO 45 3,4 C 14,0 km/h (3 Bft)
17.10.2015 12:00 5,5 C 7,3 C 86 % 1016,4 hPa 0,0 mm 7,5 km/h (2 Bft) NO 45 3,3 C 3,9 km/h (1 Bft)
17.10.2015 12:05 5,6 C 7,5 C 86 % 1016,4 hPa 0,0 mm 6,2 km/h (2 Bft) O-NO 67 3,4 C 5,4 km/h (1 Bft)
17.10.2015 12:10 5,7 C 7,7 C 86 % 1016,5 hPa 0,0 mm 6,0 km/h (2 Bft) O-NO 67 3,5 C 13,2 km/h (3 Bft)
17.10.2015 12:15 6,0 C 8,1 C 85 % 1016,5 hPa 0,0 mm 6,5 km/h (2 Bft) N-NO 22 3,7 C 8,5 km/h (2 Bft)
17.10.2015 12:20 6,2 C 8,7 C 84 % 1016,5 hPa 0,0 mm 6,5 km/h (2 Bft) O-NO 67 3,7 C 9,3 km/h (2 Bft)
17.10.2015 12:25 6,2 C 8,9 C 83 % 1016,5 hPa 0,0 mm 6,0 km/h (2 Bft) SO 135 3,5 C 9,3 km/h (2 Bft)
17.10.2015 12:30 6,0 C 8,7 C 83 % 1016,2 hPa 0,0 mm 6,0 km/h (2 Bft) O-NO 67 3,3 C 4,9 km/h (1 Bft)
17.10.2015 12:35 6,1 C 8,5 C 83 % 1016,2 hPa 0,0 mm 4,4 km/h (1 Bft) NO 45 3,4 C 10,4 km/h (2 Bft)
17.10.2015 12:40 6,1 C 8,4 C 83 % 1016,2 hPa 0,0 mm 4,7 km/h (1 Bft) S 180 3,4 C 8,5 km/h (2 Bft)
17.10.2015 12:45 6,3 C 8,8 C 83 % 1016,2 hPa 0,0 mm 5,4 km/h (1 Bft) O-NO 67 3,6 C 4,9 km/h (1 Bft)
17.10.2015 12:50 6,4 C 9,2 C 82 % 1016,4 hPa 0,0 mm 6,0 km/h (2 Bft) NO 45 3,6 C 5,4 km/h (1 Bft)
17.10.2015 12:55 6,6 C 9,9 C 82 % 1016,4 hPa 0,0 mm 6,5 km/h (2 Bft) O-NO 67 3,8 C 13,5 km/h (3 Bft)
17.10.2015 13:00 6,5 C 9,5 C 82 % 1016,4 hPa 0,0 mm 6,2 km/h (2 Bft) O-NO 67 3,7 C 16,8 km/h (3 Bft)
17.10.2015 13:05 6,2 C 8,3 C 81 % 1016,4 hPa 0,0 mm 6,7 km/h (2 Bft) NO 45 3,2 C 6,0 km/h (2 Bft)
17.10.2015 13:10 6,1 C 7,9 C 81 % 1016,4 hPa 0,0 mm 6,7 km/h (2 Bft) O-NO 67 3,1 C 16,8 km/h (3 Bft)
17.10.2015 13:15 6,1 C 7,6 C 81 % 1016,4 hPa 0,0 mm 6,2 km/h (2 Bft) N-NO 22 3,1 C 5,7 km/h (1 Bft)
17.10.2015 13:20 6,1 C 7,7 C 81 % 1016,4 hPa 0,0 mm 6,0 km/h (2 Bft) NO 45 3,1 C 8,8 km/h (2 Bft)
17.10.2015 13:25 6,1 C 7,6 C 81 % 1016,4 hPa 0,0 mm 6,2 km/h (2 Bft) NO 45 3,1 C 6,2 km/h (2 Bft)
17.10.2015 13:30 6,2 C 7,8 C 81 % 1016,1 hPa 0,0 mm 6,0 km/h (2 Bft) O 90 3,2 C 6,5 km/h (2 Bft)
17.10.2015 13:35 6,3 C 8,1 C 81 % 1016,1 hPa 0,0 mm 6,0 km/h (2 Bft) NO 45 3,3 C 12,4 km/h (3 Bft)
17.10.2015 13:40 6,3 C 7,9 C 81 % 1016,1 hPa 0,0 mm 7,0 km/h (2 Bft) O-NO 67 3,3 C 6,7 km/h (2 Bft)
17.10.2015 13:45 6,4 C 7,9 C 80 % 1016,1 hPa 0,0 mm 7,3 km/h (2 Bft) O 90 3,2 C 8,3 km/h (2 Bft)
17.10.2015 13:50 6,3 C 7,6 C 80 % 1015,8 hPa 0,0 mm 7,5 km/h (2 Bft) NO 45 3,1 C 10,4 km/h (2 Bft)
17.10.2015 13:55 6,2 C 7,3 C 80 % 1015,8 hPa 0,0 mm 6,5 km/h (2 Bft) N-NO 22 3,0 C 7,3 km/h (2 Bft)
17.10.2015 13:57 6,2 C 7,3 C 80 % 1015,8 hPa 0,0 mm 6,5 km/h (2 Bft) N-NO 22 3,0 C 7,3 km/h (2 Bft)
17.10.2015 14:00 6,1 C 7,3 C 80 % 1015,8 hPa 0,0 mm 4,9 km/h (1 Bft) NO 45 2,9 C 6,2 km/h (2 Bft)
17.10.2015 14:05 6,1 C 7,1 C 80 % 1015,8 hPa 0,0 mm 4,4 km/h (1 Bft) NO 45 2,9 C 6,0 km/h (2 Bft)
17.10.2015 14:10 6,1 C 7,0 C 80 % 1015,8 hPa 0,0 mm 4,7 km/h (1 Bft) N-NO 22 2,9 C 15,0 km/h (3 Bft)
17.10.2015 14:15 6,2 C 7,1 C 80 % 1015,8 hPa 0,0 mm 3,9 km/h (1 Bft) O-NO 67 3,0 C 7,0 km/h (2 Bft)
17.10.2015 14:20 6,2 C 7,2 C 80 % 1015,8 hPa 0,0 mm 3,9 km/h (1 Bft) NO 45 3,0 C 6,5 km/h (2 Bft)
17.10.2015 14:25 6,3 C 7,3 C 80 % 1015,8 hPa 0,0 mm 2,8 km/h (1 Bft) O-NO 67 3,1 C 6,2 km/h (2 Bft)
17.10.2015 14:30 6,3 C 7,3 C 80 % 1015,8 hPa 0,0 mm 3,6 km/h (1 Bft) O-NO 67 3,1 C 8,5 km/h (2 Bft)
17.10.2015 14:35 6,2 C 7,3 C 80 % 1015,8 hPa 0,0 mm 3,9 km/h (1 Bft) O-NO 67 3,0 C 6,7 km/h (2 Bft)
17.10.2015 14:40 6,3 C 7,4 C 80 % 1015,8 hPa 0,0 mm 3,9 km/h (1 Bft) N-NO 22 3,1 C 8,5 km/h (2 Bft)
17.10.2015 14:45 6,3 C 7,4 C 80 % 1015,8 hPa 0,0 mm 3,6 km/h (1 Bft) NO 45 3,1 C 6,0 km/h (2 Bft)
17.10.2015 14:50 6,3 C 7,3 C 80 % 1015,6 hPa 0,0 mm 4,4 km/h (1 Bft) NO 45 3,1 C 7,3 km/h (2 Bft)
17.10.2015 14:55 6,3 C 7,1 C 80 % 1015,6 hPa 0,0 mm 4,7 km/h (1 Bft) NO 45 3,1 C 5,2 km/h (1 Bft)
17.10.2015 15:00 6,2 C 7,0 C 80 % 1015,6 hPa 0,0 mm 4,1 km/h (1 Bft) O-NO 67 3,0 C 5,7 km/h (1 Bft)
17.10.2015 15:05 6,2 C 6,8 C 80 % 1015,6 hPa 0,0 mm 3,6 km/h (1 Bft) N-NO 22 3,0 C 3,1 km/h (1 Bft)
17.10.2015 15:10 6,2 C 6,7 C 80 % 1015,8 hPa 0,0 mm 3,4 km/h (1 Bft) N-NO 22 3,0 C 5,7 km/h (1 Bft)
17.10.2015 15:15 6,1 C 6,5 C 80 % 1015,8 hPa 0,0 mm 2,1 km/h (1 Bft) O-SO 112 2,9 C 2,6 km/h (1 Bft)
17.10.2015 15:20 6,0 C 6,5 C 80 % 1015,8 hPa 0,0 mm 1,3 km/h (1 Bft) SO 135 2,8 C 0,0 km/h (0 Bft)
17.10.2015 15:25 6,0 C 6,5 C 80 % 1015,8 hPa 0,0 mm 0,3 km/h (0 Bft) S-SO 157 2,8 C 2,8 km/h (1 Bft)
17.10.2015 15:30 6,0 C 6,4 C 80 % 1015,8 hPa 0,0 mm 0,5 km/h (0 Bft) O-NO 67 2,8 C 4,7 km/h (1 Bft)
17.10.2015 15:35 6,0 C 6,3 C 80 % 1015,8 hPa 0,0 mm 1,3 km/h (1 Bft) N-NW 337 2,8 C 4,7 km/h (1 Bft)
17.10.2015 15:40 6,0 C 6,2 C 80 % 1015,8 hPa 0,0 mm 2,3 km/h (1 Bft) NO 45 2,8 C 0,0 km/h (0 Bft)
17.10.2015 15:45 6,0 C 6,2 C 80 % 1015,8 hPa 0,0 mm 2,1 km/h (1 Bft) O-SO 112 2,8 C 2,6 km/h (1 Bft)
17.10.2015 15:50 6,0 C 6,2 C 80 % 1016,0 hPa 0,0 mm 1,3 km/h (1 Bft) NO 45 2,8 C 0,0 km/h (0 Bft)
17.10.2015 15:55 6,0 C 6,2 C 80 % 1016,0 hPa 0,0 mm 2,3 km/h (1 Bft) NO 45 2,8 C 4,4 km/h (1 Bft)
17.10.2015 16:00 6,0 C 6,2 C 80 % 1016,0 hPa 0,0 mm 2,1 km/h (1 Bft) N-NO 22 2,8 C 0,0 km/h (0 Bft)
17.10.2015 16:05 6,0 C 6,2 C 80 % 1016,0 hPa 0,0 mm 0,3 km/h (0 Bft) O 90 2,8 C 0,0 km/h (0 Bft)
17.10.2015 16:10 6,0 C 6,2 C 80 % 1015,6 hPa 0,0 mm 0,0 km/h (0 Bft) N-NO 22 2,8 C 0,0 km/h (0 Bft)
17.10.2015 16:15 5,9 C 6,2 C 81 % 1015,6 hPa 0,0 mm 0,3 km/h (0 Bft) NO 45 2,9 C 0,0 km/h (0 Bft)
17.10.2015 16:20 5,9 C 6,1 C 81 % 1015,6 hPa 0,0 mm 0,0 km/h (0 Bft) O-NO 67 2,9 C 0,0 km/h (0 Bft)
17.10.2015 16:25 5,8 C 6,1 C 81 % 1015,6 hPa 0,0 mm 0,0 km/h (0 Bft) S 180 2,8 C 0,0 km/h (0 Bft)
17.10.2015 16:30 5,8 C 6,0 C 81 % 1015,8 hPa 0,0 mm 0,0 km/h (0 Bft) O-NO 67 2,8 C 0,0 km/h (0 Bft)
17.10.2015 16:35 5,7 C 5,9 C 81 % 1015,8 hPa 0,0 mm 0,0 km/h (0 Bft) S 180 2,7 C 0,0 km/h (0 Bft)
17.10.2015 16:40 5,7 C 5,9 C 82 % 1015,8 hPa 0,0 mm 0,0 km/h (0 Bft) S 180 2,9 C 0,0 km/h (0 Bft)
17.10.2015 16:45 5,6 C 5,7 C 82 % 1015,8 hPa 0,0 mm 0,0 km/h (0 Bft) SO 135 2,8 C 0,0 km/h (0 Bft)
17.10.2015 16:50 5,5 C 5,7 C 82 % 1015,8 hPa 0,0 mm 0,3 km/h (0 Bft) SO 135 2,7 C 0,0 km/h (0 Bft)
17.10.2015 16:55 5,5 C 5,7 C 82 % 1015,8 hPa 0,0 mm 0,3 km/h (0 Bft) SO 135 2,7 C 0,0 km/h (0 Bft)
17.10.2015 17:00 5,5 C 5,6 C 82 % 1015,8 hPa 0,0 mm 0,0 km/h (0 Bft) S-SO 157 2,7 C 0,0 km/h (0 Bft)
17.10.2015 17:05 5,5 C 5,5 C 82 % 1015,8 hPa 0,0 mm 0,0 km/h (0 Bft) SO 135 2,7 C 0,0 km/h (0 Bft)
17.10.2015 17:10 5,5 C 5,5 C 82 % 1015,9 hPa 0,0 mm 0,3 km/h (0 Bft) O-SO 112 2,7 C 0,0 km/h (0 Bft)
17.10.2015 17:15 5,5 C 5,4 C 83 % 1015,9 hPa 0,0 mm 0,3 km/h (0 Bft) SO 135 2,8 C 0,0 km/h (0 Bft)
17.10.2015 17:20 5,5 C 5,4 C 83 % 1015,9 hPa 0,0 mm 0,0 km/h (0 Bft) S-SO 157 2,8 C 0,0 km/h (0 Bft)
17.10.2015 17:25 5,4 C 5,3 C 83 % 1015,9 hPa 0,0 mm 0,0 km/h (0 Bft) SO 135 2,7 C 0,0 km/h (0 Bft)
17.10.2015 17:30 5,4 C 5,2 C 84 % 1015,6 hPa 0,0 mm 0,0 km/h (0 Bft) SO 135 2,9 C 0,0 km/h (0 Bft)
17.10.2015 17:35 5,3 C 5,1 C 84 % 1015,6 hPa 0,0 mm 1,0 km/h (0 Bft) O-SO 112 2,8 C 3,9 km/h (1 Bft)
17.10.2015 17:40 5,3 C 5,2 C 83 % 1015,6 hPa 0,0 mm 1,3 km/h (1 Bft) O-NO 67 2,7 C 3,1 km/h (1 Bft)
17.10.2015 17:45 5,3 C 5,1 C 84 % 1015,6 hPa 0,0 mm 0,5 km/h (0 Bft) NO 45 2,8 C 0,0 km/h (0 Bft)
17.10.2015 17:50 5,3 C 5,1 C 85 % 1015,5 hPa 0,0 mm 0,8 km/h (0 Bft) O-SO 112 3,0 C 3,9 km/h (1 Bft)
17.10.2015 17:55 5,2 C 5,0 C 85 % 1015,5 hPa 0,0 mm 0,8 km/h (0 Bft) S-SO 157 2,9 C 0,0 km/h (0 Bft)
17.10.2015 18:00 5,1 C 4,9 C 85 % 1015,5 hPa 0,0 mm 0,5 km/h (0 Bft) S-SO 157 2,8 C 0,0 km/h (0 Bft)
17.10.2015 18:05 5,1 C 4,9 C 85 % 1015,5 hPa 0,0 mm 0,3 km/h (0 Bft) O 90 2,8 C 2,8 km/h (1 Bft)
17.10.2015 18:10 5,0 C 4,8 C 85 % 1015,7 hPa 0,0 mm 0,8 km/h (0 Bft) O-SO 112 2,7 C 3,4 km/h (1 Bft)
17.10.2015 18:15 5,0 C 4,7 C 86 % 1015,7 hPa 0,0 mm 0,8 km/h (0 Bft) O-NO 67 2,9 C 0,0 km/h (0 Bft)
17.10.2015 18:20 4,9 C 4,7 C 86 % 1015,7 hPa 0,0 mm 0,5 km/h (0 Bft) S-SO 157 2,8 C 0,0 km/h (0 Bft)
17.10.2015 18:25 4,8 C 4,6 C 86 % 1015,7 hPa 0,0 mm 0,0 km/h (0 Bft) O-SO 112 2,7 C 0,0 km/h (0 Bft)
17.10.2015 18:30 4,8 C 4,6 C 86 % 1015,7 hPa 0,0 mm 0,0 km/h (0 Bft) SO 135 2,7 C 0,0 km/h (0 Bft)
17.10.2015 18:35 4,8 C 4,6 C 86 % 1015,7 hPa 0,0 mm 0,0 km/h (0 Bft) O-SO 112 2,7 C 0,0 km/h (0 Bft)
17.10.2015 18:40 4,7 C 4,5 C 86 % 1015,7 hPa 0,0 mm 0,0 km/h (0 Bft) SO 135 2,6 C 0,0 km/h (0 Bft)
17.10.2015 18:45 4,6 C 4,5 C 85 % 1015,7 hPa 0,0 mm 0,0 km/h (0 Bft) S-SO 157 2,3 C 0,0 km/h (0 Bft)
17.10.2015 18:50 4,6 C 4,5 C 85 % 1015,8 hPa 0,0 mm 0,0 km/h (0 Bft) O-SO 112 2,3 C 0,0 km/h (0 Bft)
17.10.2015 18:55 4,6 C 4,5 C 85 % 1015,8 hPa 0,0 mm 0,0 km/h (0 Bft) S-SO 157 2,3 C 0,0 km/h (0 Bft)
17.10.2015 19:00 4,6 C 4,4 C 87 % 1015,8 hPa 0,0 mm 0,0 km/h (0 Bft) O 90 2,6 C 0,0 km/h (0 Bft)
17.10.2015 19:05 4,6 C 4,4 C 87 % 1015,8 hPa 0,0 mm 0,0 km/h (0 Bft) O 90 2,6 C 0,0 km/h (0 Bft)
17.10.2015 19:10 4,5 C 4,4 C 85 % 1015,6 hPa 0,0 mm 0,0 km/h (0 Bft) S-SO 157 2,2 C 0,0 km/h (0 Bft)
17.10.2015 19:15 4,5 C 4,3 C 88 % 1015,6 hPa 0,0 mm 0,0 km/h (0 Bft) O-SO 112 2,7 C 0,0 km/h (0 Bft)
17.10.2015 19:20 4,5 C 4,3 C 88 % 1015,6 hPa 0,7 mm 0,3 km/h (0 Bft) S-SO 157 2,7 C 0,0 km/h (0 Bft)
17.10.2015 19:25 4,5 C 4,3 C 88 % 1015,6 hPa 0,0 mm 0,3 km/h (0 Bft) O 90 2,7 C 0,0 km/h (0 Bft)
17.10.2015 19:30 4,5 C 4,3 C 88 % 1015,7 hPa 0,0 mm 0,0 km/h (0 Bft) S-SO 157 2,7 C 0,0 km/h (0 Bft)
17.10.2015 19:35 4,5 C 4,3 C 88 % 1015,7 hPa 0,0 mm 0,0 km/h (0 Bft) S-SO 157 2,7 C 0,0 km/h (0 Bft)
17.10.2015 19:40 4,4 C 4,2 C 88 % 1015,7 hPa 0,0 mm 0,0 km/h (0 Bft) S-SO 157 2,6 C 0,0 km/h (0 Bft)
17.10.2015 19:45 4,4 C 4,2 C 88 % 1015,7 hPa 0,0 mm 0,3 km/h (0 Bft) S-SO 157 2,6 C 0,0 km/h (0 Bft)
17.10.2015 19:50 4,4 C 4,2 C 88 % 1015,6 hPa 0,0 mm 0,3 km/h (0 Bft) S-SO 157 2,6 C 0,0 km/h (0 Bft)
17.10.2015 19:55 4,4 C 4,2 C 88 % 1015,6 hPa 0,0 mm 0,0 km/h (0 Bft) SO 135 2,6 C 0,0 km/h (0 Bft)
17.10.2015 19:58 4,4 C 4,2 C 88 % 1015,6 hPa 0,0 mm 0,0 km/h (0 Bft) SO 135 2,6 C 0,0 km/h (0 Bft)
17.10.2015 20:00 4,4 C 4,2 C 88 % 1015,6 hPa 0,0 mm 0,0 km/h (0 Bft) O-NO 67 2,6 C 0,0 km/h (0 Bft)
17.10.2015 20:05 4,3 C 4,1 C 88 % 1015,6 hPa 0,0 mm 0,0 km/h (0 Bft) SO 135 2,5 C 0,0 km/h (0 Bft)
17.10.2015 20:10 4,3 C 4,1 C 88 % 1015,6 hPa 0,0 mm 0,0 km/h (0 Bft) SO 135 2,5 C 0,0 km/h (0 Bft)
17.10.2015 20:15 4,3 C 4,1 C 89 % 1015,6 hPa 0,0 mm 0,0 km/h (0 Bft) SO 135 2,7 C 0,0 km/h (0 Bft)
17.10.2015 20:20 4,3 C 4,1 C 89 % 1015,6 hPa 0,0 mm 0,0 km/h (0 Bft) SO 135 2,7 C 0,0 km/h (0 Bft)
17.10.2015 20:25 4,3 C 4,1 C 89 % 1015,6 hPa 0,0 mm 0,0 km/h (0 Bft) S-SO 157 2,7 C 0,0 km/h (0 Bft)
17.10.2015 20:30 4,3 C 4,1 C 89 % 1015,5 hPa 0,0 mm 0,0 km/h (0 Bft) S-SO 157 2,7 C 0,0 km/h (0 Bft)
17.10.2015 20:35 4,3 C 4,1 C 89 % 1015,5 hPa 0,0 mm 0,0 km/h (0 Bft) S-SO 157 2,7 C 0,0 km/h (0 Bft)
17.10.2015 20:40 4,3 C 4,1 C 89 % 1015,5 hPa 0,0 mm 0,0 km/h (0 Bft) S-SO 157 2,7 C 0,0 km/h (0 Bft)
17.10.2015 20:45 4,3 C 4,1 C 89 % 1015,5 hPa 0,0 mm 0,0 km/h (0 Bft) S-SO 157 2,7 C 0,0 km/h (0 Bft)
17.10.2015 20:50 4,3 C 4,1 C 89 % 1015,6 hPa 0,0 mm 0,0 km/h (0 Bft) S-SO 157 2,7 C 0,0 km/h (0 Bft)
17.10.2015 20:55 4,3 C 4,2 C 89 % 1015,6 hPa 0,0 mm 0,0 km/h (0 Bft) S-SO 157 2,7 C 0,0 km/h (0 Bft)
17.10.2015 21:00 4,3 C 4,2 C 89 % 1015,6 hPa 0,0 mm 0,0 km/h (0 Bft) S-SO 157 2,7 C 0,0 km/h (0 Bft)
17.10.2015 21:05 4,3 C 4,2 C 89 % 1015,6 hPa 0,0 mm 0,0 km/h (0 Bft) S-SO 157 2,7 C 0,0 km/h (0 Bft)
17.10.2015 21:10 4,3 C 4,2 C 89 % 1015,6 hPa 0,0 mm 0,3 km/h (0 Bft) W-NW 292 2,7 C 3,6 km/h (1 Bft)
17.10.2015 21:15 4,3 C 4,2 C 89 % 1015,6 hPa 0,0 mm 0,5 km/h (0 Bft) W 270 2,7 C 0,0 km/h (0 Bft)
17.10.2015 21:20 4,3 C 4,2 C 89 % 1015,6 hPa 0,0 mm 0,5 km/h (0 Bft) W-NW 292 2,7 C 0,0 km/h (0 Bft)
17.10.2015 21:25 4,3 C 4,2 C 89 % 1015,6 hPa 0,0 mm 0,0 km/h (0 Bft) W 270 2,7 C 0,0 km/h (0 Bft)
17.10.2015 21:30 4,3 C 4,2 C 90 % 1015,8 hPa 0,0 mm 0,0 km/h (0 Bft) NW 315 2,8 C 0,0 km/h (0 Bft)
17.10.2015 21:35 4,3 C 4,2 C 90 % 1015,8 hPa 0,0 mm 0,0 km/h (0 Bft) W 270 2,8 C 0,0 km/h (0 Bft)
17.10.2015 21:40 4,3 C 4,2 C 90 % 1015,8 hPa 0,0 mm 0,0 km/h (0 Bft) W 270 2,8 C 0,0 km/h (0 Bft)
17.10.2015 21:45 4,3 C 4,2 C 90 % 1015,8 hPa 0,0 mm 0,0 km/h (0 Bft) W 270 2,8 C 0,0 km/h (0 Bft)
17.10.2015 21:50 4,3 C 4,1 C 90 % 1015,9 hPa 0,0 mm 0,0 km/h (0 Bft) W 270 2,8 C 0,0 km/h (0 Bft)
17.10.2015 21:55 4,2 C 4,1 C 87 % 1015,9 hPa 0,0 mm 0,0 km/h (0 Bft) W 270 2,2 C 0,0 km/h (0 Bft)
17.10.2015 22:00 4,2 C 4,1 C 87 % 1015,9 hPa 0,0 mm 0,0 km/h (0 Bft) W 270 2,2 C 0,0 km/h (0 Bft)
17.10.2015 22:05 4,2 C 4,1 C 90 % 1015,9 hPa 0,0 mm 0,0 km/h (0 Bft) W 270 2,7 C 0,0 km/h (0 Bft)
17.10.2015 22:10 4,2 C 4,1 C 90 % 1015,7 hPa 0,0 mm 0,0 km/h (0 Bft) W 270 2,7 C 0,0 km/h (0 Bft)
17.10.2015 22:15 4,2 C 4,1 C 90 % 1015,7 hPa 0,0 mm 0,0 km/h (0 Bft) W 270 2,7 C 0,0 km/h (0 Bft)
17.10.2015 22:20 4,2 C 4,1 C 90 % 1015,7 hPa 0,0 mm 0,0 km/h (0 Bft) W 270 2,7 C 0,0 km/h (0 Bft)
17.10.2015 22:25 4,2 C 4,0 C 90 % 1015,7 hPa 0,0 mm 0,0 km/h (0 Bft) W 270 2,7 C 0,0 km/h (0 Bft)
17.10.2015 22:30 4,2 C 4,0 C 90 % 1015,9 hPa 0,0 mm 0,0 km/h (0 Bft) W 270 2,7 C 0,0 km/h (0 Bft)
17.10.2015 22:35 4,2 C 4,0 C 90 % 1015,9 hPa 0,0 mm 0,0 km/h (0 Bft) W 270 2,7 C 0,0 km/h (0 Bft)
17.10.2015 22:40 4,2 C 4,0 C 90 % 1015,9 hPa 0,0 mm 0,0 km/h (0 Bft) W 270 2,7 C 0,0 km/h (0 Bft)
17.10.2015 22:45 4,1 C 4,0 C 90 % 1015,9 hPa 0,0 mm 0,0 km/h (0 Bft) W 270 2,6 C 0,0 km/h (0 Bft)
17.10.2015 22:50 4,1 C 3,9 C 90 % 1015,9 hPa 0,0 mm 0,0 km/h (0 Bft) W 270 2,6 C 0,0 km/h (0 Bft)
17.10.2015 22:55 4,1 C 3,9 C 90 % 1015,9 hPa 0,0 mm 0,0 km/h (0 Bft) W 270 2,6 C 0,0 km/h (0 Bft)
17.10.2015 23:00 4,1 C 3,9 C 90 % 1015,9 hPa 0,0 mm 0,0 km/h (0 Bft) W 270 2,6 C 0,0 km/h (0 Bft)
17.10.2015 23:05 4,1 C 3,9 C 90 % 1015,9 hPa 0,0 mm 0,0 km/h (0 Bft) SW 225 2,6 C 0,0 km/h (0 Bft)
17.10.2015 23:10 4,1 C 3,9 C 90 % 1015,9 hPa 0,0 mm 0,0 km/h (0 Bft) SW 225 2,6 C 0,0 km/h (0 Bft)
17.10.2015 23:15 4,1 C 3,9 C 91 % 1015,9 hPa 0,0 mm 0,0 km/h (0 Bft) S-SW 202 2,8 C 0,0 km/h (0 Bft)
17.10.2015 23:20 4,1 C 3,9 C 91 % 1015,9 hPa 0,0 mm 0,0 km/h (0 Bft) S-SO 157 2,8 C 0,0 km/h (0 Bft)
17.10.2015 23:25 4,1 C 3,9 C 91 % 1015,9 hPa 0,0 mm 0,0 km/h (0 Bft) S-SO 157 2,8 C 0,0 km/h (0 Bft)
17.10.2015 23:30 4,1 C 3,9 C 91 % 1015,6 hPa 0,0 mm 0,0 km/h (0 Bft) S-SO 157 2,8 C 0,0 km/h (0 Bft)
17.10.2015 23:35 4,0 C 3,9 C 88 % 1015,6 hPa 0,0 mm 0,0 km/h (0 Bft) S-SO 157 2,2 C 0,0 km/h (0 Bft)
17.10.2015 23:40 4,0 C 3,8 C 91 % 1015,6 hPa 0,0 mm 0,0 km/h (0 Bft) S-SO 157 2,7 C 0,0 km/h (0 Bft)
17.10.2015 23:45 4,0 C 3,8 C 91 % 1015,6 hPa 0,0 mm 0,0 km/h (0 Bft) S-SO 157 2,7 C 0,0 km/h (0 Bft)
17.10.2015 23:50 3,9 C 3,7 C 92 % 1015,8 hPa 0,0 mm 0,0 km/h (0 Bft) S-SO 157 2,7 C 0,0 km/h (0 Bft)
17.10.2015 23:55 4,0 C 3,8 C 91 % 1015,8 hPa 0,0 mm 0,0 km/h (0 Bft) S-SO 157 2,7 C 0,0 km/h (0 Bft)
_ Min-Zeit 07:40 07:50 16:10 20:45 - 23:55 - - 07:40 23:55
Minimum _ 2,1 C 2,0 C 80 % 1015,5 hPa - 0,0 km/h (0 Bft) - - 0,5 C 0,0 km/h (0 Bft)
_ Max-Zeit 12:55 12:55 07:50 00:25 19:20 11:35 - - 12:55 13:10
Maximum _ 6,6 C 9,9 C 93 % 1016,8 hPa 0,7 mm 8,3 km/h
NO (2 Bft)
- - 3,8 C 16,8 km/h
O-NO (3 Bft)
Durchschnitt _ 4,0 C 4,3 C 87 % 1015,9 hPa #1,4 mm 1,5 km/h (1 Bft) O-NO - 2,1 C 2,1 km/h (1 Bft)